Tracking 20942 objects as of 10-Jul-2020
HD Live streaming from Space Station
objects crossing your sky now

EKRAN 4

Track EKRAN 4 now!
EKRAN 4 is classified as:


NORAD ID: 11561
Int'l Code: 1979-087A
Perigee: 35,749.3 km
Apogee: 35,866.4 km
Inclination: 10.7 °
Period: 1,436.8 minutes
Semi major axis: 42178 km
RCS: 0.1995 m2 (medium)
Launch date: October 3, 1979
Source: Commonwealth of Independent States (former USSR) (CIS)
Launch site: TYURATAM MISSILE AND SPACE COMPLEX (TTMTR)
aabbcc
Your satellite tracking list
Your tracking list is empty




NASA's NSSDC Master Catalog

Two Line Element Set (TLE):
1 11561U 79087A   20191.39241247 -.00000100  00000-0  00000+0 0  9991
2 11561  10.7418 309.5138 0013878 135.7872  60.3392  1.00221477111174
Source of the keplerian elements: AFSPC